Location: Batang Balui
(2.7000°N, 113.7833°E)
Time: 19:13:16
(UTC+00:00)

Envisat - Pass Details

Date: 09 December 2022
Orbit: 763 x 765 km, 98.2° (Epoch: 29 January)

Event Time Altitude Azimuth Distance (km) Brightness Sun altitude
Exits shadow 20:58:10 25° 248° (WSW) 1,500 4.1 -19.3°
Drops below altitude 10° 21:00:54 10° 221° (SW) 2,296 5.3 -18.6°
Sets 21:03:26 0° 211° (SSW) 3,223 6.2 -18.1°
